Regional Weather Roundup
Issued by NWS Huntsville, AL

Home | Current Version | Previous Version | Text Only | Print | Product List | Glossary On
Versions: 1 2 3 4 5 6 7 8 9 10 11 12 13 14 15 16 17 18 19 20 21 22 23 24 25 26 27 28 29 30 31 32 33 34 35 36 37 38 39 40 41 42 43 44 45 46 47 48 49 50
000
ASUS44 KHUN 250010
RWRHUN

WEATHER ROUNDUP FOR THE TENNESSEE VALLEY
NATIONAL WEATHER SERVICE HUNTSVILLE AL
700 PM CDT SUN JUL 24 2016

ALZ001>004-250100-
NORTHWEST ALABAMA

CITY           SKY/WX    TMP DP  RH WIND       PRES   REMARKS
SHOALS AIRPORT CLOUDY    79  76  90 S3        30.00R
6HR MIN TEMP:  75; 6HR MAX TEMP:  98; 6HR PCP:  1.18;

SHOALS TVA RES   N/A     77 N/A N/A MISG        N/A
$$

ALZ005>007-016-250100-
NORTH CENTRAL ALABAMA

CITY           SKY/WX    TMP DP  RH WIND       PRES   REMARKS
DECATUR AP     PTCLDY    88  74  63 E5        29.99R HX  96
6HR MIN TEMP:  88; 6HR MAX TEMP:  94;

HUNTSVILLE AP  MOCLDY    91  71  51 NE5       29.99R HX  97
6HR MIN TEMP:  89; 6HR MAX TEMP:  96;

MERIDIANVILLE  PTCLDY    84  66  54 CALM      30.01R
REDSTONE ARSN  PTCLDY    87  74  66 E1        29.98R HX  96
VINEMONT AP    FAIR      76  74  96 CALM      30.05R
$$

ALZ008>010-250100-
NORTHEAST ALABAMA

CITY           SKY/WX    TMP DP  RH WIND       PRES   REMARKS
ALBERTVILLE    CLEAR     86  77  74 S3        30.02R HX  97
FORT PAYNE     CLOUDY    88  70  55 S3        30.00S HX  92
SCOTTSBORO AP  CLOUDY    88  73  62 NE3       30.00R HX  96
SCOTTSBORO HCN   N/A     88 N/A N/A MISG        N/A
VALLEY HEAD      N/A     81 N/A N/A MISG        N/A
$$

TNZ076-096-097-250100-
SOUTHEASTERN MIDDLE TENNESSEE

CITY           SKY/WX    TMP DP  RH WIND       PRES   REMARKS
TULLAHOMA      CLEAR     84  70  61 S5        30.03S
WINCHESTER     CLEAR     79  72  78 SE6       30.03R
$$

...SURROUNDING SITES...

CITY           SKY/WX    TMP DP  RH WIND       PRES   REMARKS
ATLANTA        MOCLDY    89  71  55 N13       30.03R HX  95
ANNISTON       PTCLDY    92  70  48 SW3       30.00R HX  97
BIRMINGHAM     MOCLDY    88  73  61 SE3       30.02R HX  95
CHATTANOOGA    MOCLDY    84  73  69 N3        30.01R HX  90
DALTON         PTCLDY    79  77  94 CALM      30.00S
GADSDEN        MOCLDY    89  75  63 SW3       30.00  HX  99
GOLDEN TRNGL   MOSUNNY   88  72  58 W5        29.96R HX  94
HALEYVILLE     LGT RAIN  75  73  93 VRB3      30.04R
JACKSON TN     CLOUDY    86  78  77 SE8       29.97R THUNDER HX  98
MEMPHIS        CLOUDY    88  74  63 SW3       29.96R HX  96
NASHVILLE      PTSUNNY   91  73  55 NE5       29.98R HX  99
OXFORD MS      FAIR      81  75  83 CALM      29.99S
ROME           PTCLDY    91  68  46 S5        29.99R HX  95
SAVANNAH       SUNNY     82  75  78 CALM      29.98R
TUPELO         CLOUDY    87  75  67 NE8       29.96S HX  96
TUSCALOOSA     PTCLDY    88  76  67 N6        29.97R HX  99
$$

...GULF COAST WEATHER...

CITY           SKY/WX    TMP DP  RH WIND       PRES   REMARKS
GULFPORT       PTSUNNY   86  76  71 SE7       29.96S HX  96
PASCAGOULA       N/A    N/A N/A N/A MISG      29.98R
MOBILE         PTCLDY    86  73  65 S6        29.99R HX  93
GULF SHORES    PTCLDY    86  76  72 E9G22     29.97R HX  96
PENSACOLA      MOCLDY    87  74  64 SE13      29.97R HX  95
DESTIN         MOCLDY    88  77  69 SE12      29.98R HX 100
PANAMA CITY    PTCLDY    84  75  73 SE12      29.98R HX  92
APPALACHICOLA  PTCLDY    85  77  77 S10       29.99S HX  95
$$




USA.gov is the U.S. government's official web portal to all federal, state and local government web resources and services.